Regional Weather Roundup
Issued by NWS

Home | Current Version | Previous Version | Graphics & Text | Print | Product List | Glossary On
Versions: 1 2 3 4 5 6 7 8 9 10 11 12 13 14 15 16 17 18 19 20 21 22 23 24 25 26 27 28 29 30 31 32 33 34 35 36 37 38 39 40 41 42 43 44 45 46 47 48 49 50
000
ASUS43 KDTX 300710
RWRMI
MICHIGAN HOURLY REGIONAL WEATHER ROUNDUP
NATIONAL WEATHER SERVICE DETROIT/PONTIAC MI
300 AM EDT MON MAR 30 2015

NOTE: "FAIR" INDICATES FEW OR NO CLOUDS BELOW 12,000 FEET WITH NO
SIGNIFICANT WEATHER AND/OR OBSTRUCTION TO VISIBILITY.

MIZ047>049-052>055-059>063-066>070-074>076-081>083-300800-
SOUTHEAST LOWER MICHIGAN

CITY           SKY/WX    TMP DP  RH WIND       PRES   REMARKS
ADRIAN         CLOUDY    42  31  64 NW15      29.84R
ALMA           CLOUDY    38  34  83 W12G17    29.77R
ANN ARBOR      CLOUDY    41  31  67 W16G24    29.80R
BAD AXE        CLOUDY    37  32  84 W16G26    29.66R
DETROIT CITY   CLOUDY    44  31  60 W10G21    29.76R
DETROIT        CLOUDY    43  31  62 W17G28    29.79R
FLINT          CLOUDY    40  32  73 W18       29.76R
GROSSE ILE     CLOUDY    43  32  65 W9G15     29.78R
HILLSDALE      CLOUDY    41  33  72 W16G23    29.83R
HOWELL         CLOUDY    39  32  76 W15G22    29.78R

CITY           SKY/WX    TMP DP  RH WIND       PRES   REMARKS
JACKSON        CLOUDY    40  32  73 W16G30    29.81R
LAMBERTVILLE   CLOUDY    43  32  65 W10G20    29.84R
LANSING        CLOUDY    39  32  76 W15G23    29.81R
LAPEER         NOT AVBL
MASON          CLOUDY    39  32  76 W14G20    29.80R
MONROE         CLOUDY    43  32  65 W16G23    29.80R
MT. CLEMENS    CLOUDY    42  32  67 W18G26    29.71R
PONTIAC        CLOUDY    39  32  76 W22G30    29.74R
PORT HOPE        N/A     37  31  78 W16G24    29.61R
PORT HURON     CLOUDY    39  32  75 W15G21    29.71R
TRI CITIES     CLOUDY    39  32  76 W14       29.74R
YPSILANTI      CLOUDY    45  32  60 W22G31    29.79R
$$
MIZ043>046-050>051-056>058-064>065-071>073-077>080-300800-
SOUTHWEST LOWER MICHIGAN

CITY           SKY/WX    TMP DP  RH WIND       PRES   REMARKS
BATTLE CREEK   CLOUDY    40  31  70 W13G22    29.85R
BENTON HARBOR  MOCLDY    38  32  79 W16       29.92R
BIG RAPIDS     CLOUDY    37  32  81 W9G18     29.76R
COLDWATER      CLOUDY    40  31  71 W14       29.86R
HOLLAND        PTCLDY    40  30  67 W13G23    29.87R
GRAND RAPIDS   CLOUDY    39  31  72 W14       29.83R
KALAMAZOO      CLOUDY    39  30  70 W8        29.87R
MARSHALL       CLOUDY    39  31  74 W15       29.83R
MUSKEGON       CLEAR     39  30  70 W20G28    29.85R
$$
MIZ016>042-300800-
NORTHERN LOWER MICHIGAN

CITY           SKY/WX    TMP DP  RH WIND       PRES   REMARKS
ALPENA         CLOUDY    36  31  82 W14G21    29.58R
BEAVER ISLAND  CLEAR     34  31  88 W10G17    29.67R
BELLAIRE       CLOUDY    37  32  82 W6G18     29.71R
CADILLAC       CLOUDY    35  31  85 NW13G22   29.72R
CHARLEVOIX     CLOUDY    34  33  94 W14       29.71R
FRANKFORT      SUNNY     37  31  76 W6        29.77R
GAYLORD        CLOUDY    33  32  96 W14G26    29.64R
GRAYLING       CLOUDY    35  32  88 W14G23    29.67R
HARBOR SPRINGS CLOUDY    33  32  95 W6        29.66R
HOUGHTON LAKE  CLOUDY    34  32  92 W12G21    29.69R
MANISTEE       CLEAR     36  28  75 W16       29.79R
OSCODA         CLOUDY    37  32  82 W17G24    29.62R
PELLSTON       CLOUDY    35  31  85 W18G28    29.63R
TRAVERSE CITY  PTCLDY    37  30  75 W12       29.72R
$$
MIZ007>008-015-300800-
EASTERN UPPER MICHIGAN

CITY           SKY/WX    TMP DP  RH WIND       PRES   REMARKS
KINROSS        CLOUDY    34  34 100 NW22G31   29.54R
MACKINAC ISLAN CLOUDY    34  33  95 NW14G21   29.60R
NEWBERRY       CLOUDY    33  31  90 NW14G21   29.62R
S. S. MARIE    LGT RAIN  34  30  85 NW15G28   29.54R
$$
MIZ004>006-011>014-085-300800-
CENTRAL UPPER MICHIGAN

CITY           SKY/WX    TMP DP  RH WIND       PRES   REMARKS
MANISTIQUE     CLEAR     34  31  90 NW9       29.67R
ESCANABA       CLEAR     36  28  75 W12       29.72R
MENOMINEE      CLEAR     36  27  69 W7        29.78R
SAWYER-GWINN   PTCLDY    34  28  80 NW13      29.70R
$$
MIZ001>003-009>011-084-300800-
WESTERN UPPER MICHIGAN

CITY           SKY/WX    TMP DP  RH WIND       PRES   REMARKS
IRON MOUNTAIN  CLEAR     36  27  69 W9        29.74R
HOUGHTON       CLOUDY    35  29  78 W16       29.69S
COPPER HARBOR    N/A     35  27  72 N15       29.68R
IRONWOOD       CLEAR     34  25  69 W14       29.77S
$$

ABBREVIATIONS USED IN REMARKS
   TC - TEMPERATURE IN CELSIUS
  WCI - WIND CHILL INDEX
   HX - HEAT INDEX
  VSB - VISIBILITY




USA.gov is the U.S. government's official web portal to all federal, state and local government web resources and services.